Tampa, FL

4:26 AM EST on February 07, 2016 (GMT -0500)
MacDill Air Force Base

Weather History for KMCF - September, 2013

Change the Weather History Date:

Wednesday, September 25, 2013

  Actual Average Record
Temperature  
Mean Temperature 76 °F -  
Max Temperature 80 °F 85 °F 91 °F (2010)
Min Temperature 71 °F 71 °F 65 °F (2008)
Cooling Degree Days 10    
Growing Degree Days 26 (Base 50)    
Moisture  
Dew Point 75 °F    
Average Humidity 97    
Maximum Humidity 100    
Minimum Humidity 84    
Precipitation  
Precipitation 1.38 in - - ()
Sea Level Pressure  
Sea Level Pressure 29.86 in    
Wind  
Wind Speed 7 mph (WSW)    
Max Wind Speed 21 mph    
Max Gust Speed 29 mph    
Visibility 8 miles    
Events Rain , Thunderstorm    
Averages and records for this station are not official NWS values.
T = Trace of Precipitation, MM = Missing Value Source: NWS Daily Summary

Daily Weather History Graph

Daily Weather History Graph

Search for Another Location

Airport or City:

Trip Planner

Search our weather history database for the weather conditions in past years. The results will help you decide how hot, cold, wet, or windy it might be!

Date:

Astronomy

Sep. 25, 2013 Rise Set
Actual Time 7:20 AM EDT 7:22 PM EDT
Civil Twilight 6:56 AM EDT 7:46 PM EDT
Nautical Twilight 6:29 AM EDT 8:13 PM EDT
Astronomical Twilight 6:02 AM EDT 8:40 PM EDT
Moon 11:54 PM EDT (9/25) 12:58 PM EDT (9/25)
Length of Visible Light 12h 49m
Length of Day
12h 02m
Waning Gibbous, 64% of the Moon is Illuminated
Sep 25
Waning Gibbous
Sep 26
Last Quarter
Oct 4
New
Oct 11
First Quarter
Oct 18
Full

Hourly Weather History & Observations

Time (EDT) Temp. Heat Index Dew Point Humidity Pressure Visibility Wind Dir Wind Speed Gust Speed Precip Events Conditions
12:58 AM 79.7 °F - 79.3 °F 99% 29.88 in 10.0 mi West 5.8 mph - N/A   Clear
1:23 AM 78.8 °F - 78.8 °F 100% 29.87 in 10.0 mi WNW 4.6 mph - N/A   Mostly Cloudy
1:58 AM 77.9 °F - 76.5 °F 95% 29.87 in 10.0 mi WSW 4.6 mph - N/A   Mostly Cloudy
2:13 AM 77.0 °F - 75.2 °F 94% 29.85 in 10.0 mi NW 5.8 mph - N/A   Mostly Cloudy
2:23 AM 77.0 °F - 75.2 °F 94% 29.85 in 10.0 mi WNW 3.5 mph - N/A   Mostly Cloudy
2:33 AM 77.0 °F - 75.2 °F 94% 29.85 in 10.0 mi West 2.3 mph - N/A   Mostly Cloudy
2:34 AM 77.0 °F - 75.2 °F 94% 29.85 in 10.0 mi Variable 2.3 mph - N/A   Light Drizzle
2:39 AM 77.0 °F - 75.2 °F 94% 29.84 in 7.0 mi SW 3.5 mph - N/A Rain Light Rain
2:44 AM 77.0 °F - 75.2 °F 94% 29.84 in 2.5 mi South 2.3 mph - N/A Rain Light Rain
2:49 AM 77.0 °F - 75.2 °F 94% 29.83 in 3.0 mi South 3.5 mph - N/A   Mostly Cloudy
2:55 AM 77.0 °F - 75.2 °F 94% 29.84 in 10.0 mi SW 12.7 mph 19.6 mph N/A   Light Drizzle
2:58 AM 77.0 °F - 77.0 °F 100% 29.86 in 10.0 mi WSW 16.1 mph 25.3 mph 0.02 in Rain Light Rain
2:59 AM 77.0 °F - 77.0 °F 100% 29.85 in 10.0 mi West 13.8 mph 25.3 mph N/A Rain Light Rain
3:24 AM 75.2 °F - 75.2 °F 100% 29.83 in 7.0 mi NW 9.2 mph 18.4 mph N/A Rain Rain
3:34 AM 73.4 °F - 73.4 °F 100% 29.83 in 6.0 mi NW 6.9 mph - N/A Rain Heavy Rain
3:44 AM 73.4 °F - 73.4 °F 100% 29.84 in 7.0 mi NNW 5.8 mph - N/A Rain Rain
3:49 AM 73.4 °F - 73.4 °F 100% 29.85 in 7.0 mi Variable 3.5 mph - N/A Rain Rain
3:58 AM 73.6 °F - 73.6 °F 100% 29.86 in 8.0 mi West 3.5 mph - 0.17 in Rain Rain
4:58 AM 72.5 °F - 72.5 °F 100% 29.87 in 10.0 mi West 4.6 mph - 0.08 in Rain Light Rain
5:58 AM 72.7 °F - 72.7 °F 100% 29.86 in 6.0 mi SW 4.6 mph - 0.09 in Rain Rain
6:58 AM 73.2 °F - 73.2 °F 100% 29.88 in 10.0 mi WSW 4.6 mph - 0.10 in Rain Light Rain
7:58 AM 73.4 °F - 73.4 °F 100% 29.92 in 1.2 mi Variable 5.8 mph - 0.22 in Rain Heavy Rain
8:03 AM 73.4 °F - 73.4 °F 100% 29.91 in 1.0 mi NNW 16.1 mph - N/A Rain Heavy Rain
8:08 AM 73.4 °F - 73.4 °F 100% 29.91 in 2.0 mi NNW 16.1 mph 23.0 mph N/A Rain Heavy Rain
9:08 AM 71.6 °F - 71.6 °F 100% 29.91 in 3.0 mi West 2.3 mph - N/A Rain Light Rain
9:49 AM 71.6 °F - 71.6 °F 100% 29.92 in 4.0 mi NW 2.3 mph - N/A Rain , Thunderstorm Thunderstorms and Rain
9:58 AM 71.1 °F - 71.1 °F 100% 29.93 in 5.0 mi NW 3.5 mph - 0.21 in Rain , Thunderstorm Thunderstorms and Rain
10:04 AM 71.6 °F - 71.6 °F 100% 29.92 in 4.0 mi WNW 4.6 mph - N/A Rain Heavy Rain
10:24 AM 71.6 °F - 71.6 °F 100% 29.92 in 4.0 mi West 5.8 mph - N/A Rain Rain
10:58 AM 71.6 °F - 71.6 °F 100% 29.93 in 7.0 mi SW 8.1 mph - 0.23 in Rain Light Rain
11:58 AM 72.1 °F - 72.1 °F 100% 29.88 in 9.0 mi SW 20.7 mph 28.8 mph 0.15 in Rain Light Rain
12:58 PM 72.9 °F - 72.9 °F 100% 29.87 in 10.0 mi SW 11.5 mph - 0.11 in Rain Light Rain
1:31 PM 75.2 °F - 75.2 °F 100% 29.85 in 10.0 mi SW 10.4 mph - N/A   Mostly Cloudy
1:57 PM 75.6 °F - 74.3 °F 96% 29.83 in 10.0 mi SW 12.7 mph - 0.00 in   Light Drizzle
2:56 PM 78.8 °F - 75.2 °F 89% 29.83 in 10.0 mi SW 13.8 mph - N/A   Overcast
3:58 PM 80.6 °F 86.2 °F 75.2 °F 84% 29.82 in 10.0 mi WSW 10.4 mph - N/A   Overcast
5:03 PM 78.8 °F - 77.0 °F 94% 29.82 in 10.0 mi SW 10.4 mph - N/A   Mostly Cloudy
5:58 PM 78.8 °F - 75.2 °F 89% 29.82 in 10.0 mi SW 10.4 mph - N/A   Overcast
6:59 PM 78.8 °F - 77.0 °F 94% 29.82 in 10.0 mi SW 10.4 mph - N/A   Mostly Cloudy
7:58 PM 78.1 °F - 76.6 °F 95% 29.83 in 10.0 mi SW 5.8 mph - N/A   Mostly Cloudy
8:59 PM 78.8 °F - 77.0 °F 94% 29.83 in 10.0 mi SW 4.6 mph - N/A   Scattered Clouds
10:00 PM 78.8 °F - 78.8 °F 100% 29.85 in 10.0 mi SW 5.8 mph - N/A   Partly Cloudy
10:58 PM 79.0 °F - 79.0 °F 100% 29.85 in 10.0 mi WSW 1.2 mph - N/A   Scattered Clouds
11:58 PM 79.3 °F - 79.3 °F 100% 29.85 in 10.0 mi SW 6.9 mph - N/A   Partly Cloudy